FW1907 Weather Reports


Display with metric or nautical units.
time (UTC)temp
F
wind
direction
speed
MPH
gust
MPH
rain 1hr
in
rain 24hr
in
rain mn
in
humidity
%
barometer
mb
20260504141004 47 94 0.0 0.0 0.00 0.00 0.00 53 1015.1
20260504140503 47 93 0.0 0.0 0.00 0.00 0.00 53 1014.9
20260504130500 45 125 0.0 0.0 0.00 0.00 0.00 55 1014.5
20260504110458 43 137 0.0 0.0 0.00 0.00 0.00 65 1013.3
20260504110345 43 93 0.0 0.0 0.00 0.00 0.00 66 1012.9
20260504100456 47 147 0.0 0.0 0.00 0.00 0.00 53 1011.0
20260504081953 47 149 0.0 0.0 0.00 0.00 0.00 55 1010.9
20260504081455 47 151 0.0 0.0 0.00 0.00 0.00 55 1010.9
20260504080953 47 151 0.0 0.0 0.00 0.00 0.00 55 1010.9
20260504080456 47 151 0.0 0.0 0.00 0.00 0.00 55 1010.9
20260504050448 51 207 0.0 0.0 0.00 0.00 0.00 52 1011.1
20260504045949 51 147 0.0 0.0 0.00 0.00 0.00 52 1011.1
20260504045447 52 147 0.0 0.0 0.00 0.00 0.00 51 1011.0
20260504044947 52 147 0.0 0.0 0.00 0.00 0.00 51 1011.0
20260504044448 52 147 0.0 0.0 0.00 0.00 0.00 52 1010.9
20260504043948 52 147 0.0 0.0 0.00 0.00 0.00 52 1010.9
20260504043446 51 147 0.0 0.0 0.00 0.00 0.00 52 1010.9
20260504042947 51 147 0.0 0.0 0.00 0.00 0.00 52 1010.8
20260504042447 51 148 0.0 0.0 0.00 0.00 0.00 53 1010.8
20260504042325 51 147 0.0 0.0 0.00 0.00 0.00 53 1010.8
20260504041448 50 149 0.0 0.0 0.00 0.00 0.00 54 1010.7
20260504041329 51 155 0.0 0.0 0.00 0.00 0.00 54 1010.7
20260504040448 51 166 0.0 0.0 0.00 0.00 0.00 53 1010.6
20260504035945 52 200 0.0 0.0 0.00 0.00 0.00 52 1010.4
20260504035448 52 178 0.0 0.0 0.00 0.00 0.00 51 1010.4
20260504034946 54 185 0.0 0.0 0.00 0.00 0.00 49 1010.3
20260504034447 56 180 0.0 0.0 0.00 0.00 0.00 45 1010.3
20260504033947 58 180 0.0 0.0 0.00 0.00 0.00 40 1010.2
20260504033447 61 262 0.0 0.0 0.00 0.00 0.00 35 1010.1
20260504032948 61 355 0.0 0.0 0.00 0.00 0.00 35 1010.0
20260504032446 62 355 0.0 0.0 0.00 0.00 0.00 35 1010.0
20260504032328 62 355 0.0 0.0 0.00 0.00 0.00 34 1009.9
20260504031445 62 355 0.0 0.0 0.00 0.00 0.00 34 1009.7
20260504030945 62 355 0.0 0.0 0.00 0.00 0.00 34 1009.7
20260504030445 63 355 0.0 0.0 0.00 0.00 0.00 34 1009.7
20260504025945 63 355 0.0 0.0 0.00 0.00 0.00 33 1009.7
20260504025447 64 344 0.0 0.0 0.00 0.00 0.00 33 1009.6
20260504024947 64 343 0.0 0.0 0.00 0.00 0.00 32 1009.6
20260504024446 64 344 0.0 0.0 0.00 0.00 0.00 32 1009.6
20260504023945 65 340 0.0 0.0 0.00 0.00 0.00 31 1009.6
20260504023446 66 353 0.0 0.0 0.00 0.00 0.00 30 1009.6
20260504022944 67 350 0.0 0.0 0.00 0.00 0.00 29 1009.6
20260504022443 67 0 0.0 0.0 0.00 0.00 0.00 28 1009.6
20260504022325 68 348 0.0 0.0 0.00 0.00 0.00 28 1009.5
20260504021827 69 336 0.0 0.0 0.00 0.00 0.00 26 1009.4
20260504020945 69 351 0.0 0.0 0.00 0.00 0.00 27 1009.5
20260504020443 70 0 0.0 0.0 0.00 0.00 0.00 26 1009.5
20260504015944 70 0 0.0 0.0 0.00 0.00 0.00 26 1009.4
20260504015445 69 0 0.0 0.0 0.00 0.00 0.00 26 1009.4
20260504014945 69 0 0.0 0.0 0.00 0.00 0.00 25 1009.4
20260504014444 69 0 0.0 0.0 0.00 0.00 0.00 25 1009.5
20260504014324 70 355 0.0 0.0 0.00 0.00 0.00 25 1009.6
20260504013822 70 313 0.0 0.0 0.00 0.00 0.00 23 1009.6
20260504012942 70 292 0.0 0.0 0.00 0.00 0.00 22 1009.6
20260504012445 70 247 0.0 0.0 0.00 0.00 0.00 22 1009.5
20260504011942 70 258 0.0 0.0 0.00 0.00 0.00 22 1009.6
20260504011444 71 286 0.0 0.0 0.00 0.00 0.00 22 1009.6
20260504010943 71 298 0.0 0.0 0.00 0.00 0.00 22 1009.6
20260504010442 71 258 0.0 0.0 0.00 0.00 0.00 22 1009.7
20260504005942 71 193 0.0 0.0 0.00 0.00 0.00 21 1009.9
20260504005814 71 237 0.0 0.0 0.00 0.00 0.00 22 1010.0
20260504004941 71 269 0.0 0.0 0.00 0.00 0.00 22 1009.9
20260504004815 71 283 0.0 0.0 0.00 0.00 0.00 22 1010.0
20260504003942 72 321 0.0 0.0 0.00 0.00 0.00 23 1010.0
20260504003442 72 217 0.0 0.0 0.00 0.00 0.00 23 1010.1
20260504003315 71 278 0.0 0.0 0.00 0.00 0.00 24 1010.1
20260504002441 71 279 0.0 0.0 0.00 0.00 0.00 24 1010.2
20260504001941 71 265 0.0 0.0 0.00 0.00 0.00 23 1010.3
20260504001441 71 161 0.0 0.0 0.00 0.00 0.00 24 1010.2
20260504000940 71 216 0.0 0.0 0.00 0.00 0.00 23 1010.3
20260504000441 71 188 0.0 0.0 0.00 0.00 0.00 23 1010.4
20260503235942 71 272 0.0 0.0 0.00 0.00 0.00 23 1010.4
20260503235441 71 250 0.0 0.0 0.00 0.00 0.00 24 1010.4
20260503234941 71 269 0.0 0.0 0.00 0.00 0.00 23 1010.6
20260503234441 71 237 0.0 0.0 0.00 0.00 0.00 23 1010.6
20260503233939 70 299 0.0 0.0 0.00 0.00 0.00 24 1010.7
20260503233440 70 276 0.0 0.0 0.00 0.00 0.00 24 1010.8
20260503232941 71 326 0.0 0.0 0.00 0.00 0.00 24 1010.8
20260503232439 71 327 0.0 0.0 0.00 0.00 0.00 25 1010.8
20260503232319 70 324 0.0 0.0 0.00 0.00 0.00 24 1010.9
20260503231440 70 300 0.0 0.0 0.00 0.00 0.00 25 1010.9
20260503230941 70 283 0.0 0.0 0.00 0.00 0.00 25 1011.0
20260503230440 70 271 0.0 0.0 0.00 0.00 0.00 26 1011.0
20260503230309 70 274 0.0 0.0 0.00 0.00 0.00 26 1011.1
20260503225431 70 221 0.0 0.0 0.00 0.00 0.00 26 1011.2
20260503224931 70 188 0.0 0.0 0.00 0.00 0.00 25 1011.2
20260503224432 70 283 0.0 0.0 0.00 0.00 0.00 25 1011.2
20260503223931 71 241 0.0 0.0 0.00 0.00 0.00 25 1011.2
20260503223703 70 148 0.0 0.0 0.00 0.00 0.00 25 1011.5
20260503223556 71 337 0.0 0.0 0.00 0.00 0.00 25 1011.4
20260503222431 69 257 0.0 0.0 0.00 0.00 0.00 29 1011.6
20260503221931 69 255 0.0 0.0 0.00 0.00 0.00 28 1011.6
20260503221431 69 250 0.0 0.0 0.00 0.00 0.00 26 1011.8
20260503220930 69 231 0.0 0.0 0.00 0.00 0.00 27 1011.9
20260503220816 69 314 0.0 0.0 0.00 0.00 0.00 28 1012.1
20260503215932 69 252 0.0 0.0 0.00 0.00 0.00 27 1012.2
20260503215431 69 320 0.0 0.0 0.00 0.00 0.00 27 1012.2
20260503214933 70 248 0.0 0.0 0.00 0.00 0.00 27 1012.3
20260503214432 70 348 0.0 0.0 0.00 0.00 0.00 27 1012.3
20260503213933 69 252 0.0 0.0 0.00 0.00 0.00 28 1012.4
20260503213433 69 200 0.0 0.0 0.00 0.00 0.00 27 1012.6
20260503212931 70 323 0.0 0.0 0.00 0.00 0.00 28 1012.6
20260503212802 70 281 0.0 0.0 0.00 0.00 0.00 29 1012.6
20260503212313 69 20 0.0 0.0 0.00 0.00 0.00 30 1012.9
20260503211432 69 312 0.0 0.0 0.00 0.00 0.00 29 1012.9
20260503210932 69 279 0.0 0.0 0.00 0.00 0.00 30 1013.0
20260503210431 69 247 0.0 0.0 0.00 0.00 0.00 28 1013.1
20260503205931 68 25 0.0 0.0 0.00 0.00 0.00 29 1013.2
20260503205431 67 271 0.0 0.0 0.00 0.00 0.00 31 1013.2
20260503204932 67 285 0.0 0.0 0.00 0.00 0.00 31 1013.4
20260503204432 68 264 0.0 0.0 0.00 0.00 0.00 32 1013.4
20260503203931 67 0 0.0 0.0 0.00 0.00 0.00 30 1013.4
20260503203818 67 248 0.0 0.0 0.00 0.00 0.00 32 1013.6
20260503203052 67 251 0.0 0.0 0.00 0.00 0.00 31 1013.8
20260503203011 67 192 0.0 0.0 0.00 0.00 0.00 31 1013.6
20260503202553 67 255 0.0 0.0 0.00 0.00 0.00 30 1013.7
20260503201431 66 286 0.0 0.0 0.00 0.00 0.00 33 1013.8
20260503201321 66 281 0.0 0.0 0.00 0.00 0.00 35 1013.8
20260503200433 65 221 0.0 0.0 0.00 0.00 0.00 35 1014.0
20260503195933 66 282 0.0 0.0 0.00 0.00 0.00 32 1014.1
20260503195428 66 331 0.0 0.0 0.00 0.00 0.00 32 1014.1
20260503194929 66 326 0.0 0.0 0.00 0.00 0.00 33 1014.1
20260503194428 66 21 0.0 0.0 0.00 0.00 0.00 31 1014.2
20260503193926 66 347 0.0 0.0 0.00 0.00 0.00 35 1014.2
20260503193424 65 257 0.0 0.0 0.00 0.00 0.00 33 1014.4
20260503193314 65 268 0.0 0.0 0.00 0.00 0.00 35 1014.5
20260503192425 65 258 0.0 0.0 0.00 0.00 0.00 35 1014.7
20260503191918 65 11 0.0 0.0 0.00 0.00 0.00 33 1014.7
20260503191419 65 326 0.0 0.0 0.00 0.00 0.00 35 1014.8
20260503190917 64 262 0.0 0.0 0.00 0.00 0.00 35 1014.9
20260503190417 65 329 0.0 0.0 0.00 0.00 0.00 34 1014.9
20260503185917 65 334 0.0 0.0 0.00 0.00 0.00 35 1015.1
20260503185418 65 0 0.0 0.0 0.00 0.00 0.00 35 1015.1
20260503184917 64 231 0.0 0.0 0.00 0.00 0.00 36 1015.1
20260503184415 64 14 0.0 0.0 0.00 0.00 0.00 35 1015.1
20260503184254 64 319 0.0 0.0 0.00 0.00 0.00 38 1015.2
20260503183549 63 16 0.0 0.0 0.00 0.00 0.00 36 1015.4
20260503183543 64 0 0.0 0.0 0.00 0.00 0.00 37 1015.4
20260503183453 64 353 0.0 0.0 0.00 0.00 0.00 37 1015.3
20260503181905 62 331 0.0 0.0 0.00 0.00 0.00 39 1015.5
20260503181404 63 279 0.0 0.0 0.00 0.00 0.00 38 1015.4
20260503180905 63 336 0.0 0.0 0.00 0.00 0.00 38 1015.6
20260503180403 62 348 0.0 0.0 0.00 0.00 0.00 42 1015.6
20260503175904 62 312 0.0 0.0 0.00 0.00 0.00 41 1015.5
20260503175405 62 20 0.0 0.0 0.00 0.00 0.00 40 1015.6
20260503174904 62 295 0.0 0.0 0.00 0.00 0.00 42 1015.7
20260503174405 61 0 0.0 0.0 0.00 0.00 0.00 44 1015.9
20260503173903 61 25 0.0 0.0 0.00 0.00 0.00 44 1015.9
20260503173405 61 24 0.0 0.0 0.00 0.00 0.00 43 1015.9
20260503172903 60 0 0.0 0.0 0.00 0.00 0.00 45 1016.0
20260503172404 60 338 0.0 0.0 0.00 0.00 0.00 43 1016.0
20260503171903 60 333 0.0 0.0 0.00 0.00 0.00 45 1016.1
20260503171404 60 321 0.0 0.0 0.00 0.00 0.00 45 1016.2
20260503170905 60 31 0.0 0.0 0.00 0.00 0.00 47 1016.2
20260503170548 59 31 0.0 0.0 0.00 0.00 0.00 48 1016.2
20260503170503 59 295 0.0 0.0 0.00 0.00 0.00 46 1016.2